Location: Riverside Cemetery
(38.3047°N, 99.7773°W)
Time: 09:39:12
(UTC+00:00)

Cosmos 1812 - Pass Details

Date: 19 September 2020
Orbit: 516 x 521 km, 82.5° (Epoch: 30 October)

Event Time Altitude Azimuth Distance (km) Brightness Sun altitude
Exits shadow 10:48:25 52° 224° (SW) 647 2.8 -19.4°
Maximum altitude 10:49:08 66° 278° (W) 571 2.6 -19.3°
Drops below altitude 10° 10:52:58 10° 1° (N) 1,760 5.6 -18.5°
Sets 10:55:08 0° 5° (N) 2,654 6.6 -18.1°
